When you browse on this site, cookies collect data to enhance your experience and personalize the content and advertising you see.
Visit our Privacy Policy to learn more. By continuing to use the site, you agree to this use of cookies and data.
  • In Hungary
  • List of Countries
  • For 7 days
  • Water Temperature
  • Weather Map
  • News
  • Weather Widgets
  • user-avatar
    Login

    Hourly Weather Sinnai

    Today, 12 November, Tuesday

    Time Temperature Precipitation Wind Pressure Humidity
    00:00 +12°C° 0.2 mm 3 mps 739 mmHg 87%
    01:00 +12°C° 0 mm 4 mps 738 mmHg 87%
    02:00 +12°C° 0 mm 4 mps 737 mmHg 85%
    03:00 +11°C° 0 mm 4 mps 736 mmHg 84%
    04:00 +11°C° 0 mm 4 mps 735 mmHg 83%
    05:00 +11°C° 0 mm 4 mps 735 mmHg 83%
    06:00 +10°C° 0 mm 5 mps 734 mmHg 83%
    07:00 +12°C° 0 mm 5 mps 734 mmHg 83%
    08:00 +13°C° 0.1 mm 6 mps 734 mmHg 80%
    09:00 +12°C° 0.1 mm 7 mps 733 mmHg 77%
    10:00 +13°C° 0.1 mm 8 mps 733 mmHg 74%
    11:00 +13°C° 1.8 mm 9 mps 732 mmHg 77%
    12:00 +13°C° 1.8 mm 9 mps 732 mmHg 80%
    13:00 +12°C° 1.8 mm 9 mps 732 mmHg 83%
    14:00 +12°C° 2.5 mm 9 mps 731 mmHg 84%
    15:00 +12°C° 2.5 mm 9 mps 731 mmHg 85%
    16:00 +12°C° 2.5 mm 9 mps 731 mmHg 87%
    17:00 +12°C° 0.6 mm 9 mps 732 mmHg 85%
    18:00 +12°C° 0.6 mm 9 mps 732 mmHg 84%
    19:00 +12°C° 0.6 mm 9 mps 733 mmHg 83%
    20:00 +12°C° 0 mm 10 mps 734 mmHg 80%
    21:00 +12°C° 0 mm 10 mps 734 mmHg 78%
    22:00 +11°C° 0 mm 11 mps 735 mmHg 75%
    23:00 +11°C° 0 mm 11 mps 735 mmHg 73%

    Tomorrow, 13 November, Wednesday

    Time Temperature Precipitation Wind Pressure Humidity
    00:00 +11°C° 0 mm 11 mps 736 mmHg 71%
    01:00 +11°C° 0 mm 11 mps 736 mmHg 70%
    02:00 +11°C° 0 mm 11 mps 737 mmHg 69%
    03:00 +11°C° 0 mm 11 mps 737 mmHg 69%
    04:00 +11°C° 0 mm 11 mps 737 mmHg 68%
    05:00 +11°C° 0 mm 10 mps 738 mmHg 69%
    06:00 +11°C° 0 mm 9 mps 739 mmHg 70%
    07:00 +11°C° 0 mm 8 mps 739 mmHg 71%
    08:00 +12°C° 0 mm 8 mps 740 mmHg 69%
    09:00 +13°C° 0 mm 8 mps 740 mmHg 67%
    10:00 +15°C° 0 mm 8 mps 741 mmHg 65%
    11:00 +15°C° 0 mm 8 mps 741 mmHg 65%
    12:00 +15°C° 0 mm 7 mps 741 mmHg 66%
    13:00 +15°C° 0 mm 6 mps 741 mmHg 66%
    14:00 +15°C° 0.2 mm 5 mps 741 mmHg 70%
    15:00 +14°C° 0.2 mm 5 mps 740 mmHg 74%
    16:00 +13°C° 0.2 mm 4 mps 740 mmHg 79%
    17:00 +13°C° 4.4 mm 5 mps 740 mmHg 84%
    18:00 +13°C° 4.4 mm 5 mps 740 mmHg 89%
    19:00 +13°C° 4.4 mm 6 mps 739 mmHg 94%
    20:00 +13°C° 3.4 mm 6 mps 740 mmHg 94%
    21:00 +13°C° 3.4 mm 5 mps 740 mmHg 93%
    22:00 +13°C° 3.4 mm 4 mps 740 mmHg 93%
    23:00 +12°C° 0.6 mm 5 mps 740 mmHg 91%

    Day after tomorrow, 14 November, Thursday

    Time Temperature Precipitation Wind Pressure Humidity
    00:00 +10°C° 0.6 mm 5 mps 740 mmHg 89%
    01:00 +10°C° 0.6 mm 6 mps 741 mmHg 88%
    02:00 +9°C° 0 mm 6 mps 741 mmHg 86%
    03:00 +9°C° 0 mm 6 mps 741 mmHg 84%
    04:00 +9°C° 0 mm 6 mps 742 mmHg 82%
    05:00 +8°C° 0 mm 5 mps 742 mmHg 82%
    06:00 +8°C° 0 mm 5 mps 742 mmHg 83%
    07:00 +8°C° 0 mm 4 mps 743 mmHg 84%
    08:00 +10°C° 0 mm 4 mps 743 mmHg 79%
    09:00 +12°C° 0 mm 4 mps 744 mmHg 75%
    10:00 +13°C° 0 mm 4 mps 744 mmHg 70%
    11:00 +14°C° 0 mm 4 mps 744 mmHg 68%
    12:00 +16°C° 0 mm 3 mps 744 mmHg 65%
    13:00 +16°C° 0 mm 3 mps 744 mmHg 62%
    14:00 +16°C° 0 mm 3 mps 743 mmHg 64%
    15:00 +16°C° 0 mm 3 mps 743 mmHg 66%
    16:00 +15°C° 0 mm 4 mps 742 mmHg 68%
    17:00 +14°C° 0 mm 4 mps 742 mmHg 73%
    18:00 +13°C° 0 mm 4 mps 742 mmHg 77%
    19:00 +12°C° 0 mm 4 mps 742 mmHg 82%
    20:00 +12°C° 0 mm 4 mps 742 mmHg 82%
    21:00 +13°C° 0 mm 4 mps 741 mmHg 82%
    22:00 +13°C° 0 mm 5 mps 741 mmHg 82%
    23:00 +13°C° 0 mm 4 mps 741 mmHg 81%

    15 November, Friday

    Time Temperature Precipitation Wind Pressure Humidity
    00:00 +13°C° 0 mm 4 mps 741 mmHg 81%
    01:00 +14°C° 0 mm 4 mps 741 mmHg 80%
    02:00 +13°C° 0 mm 4 mps 740 mmHg 81%
    03:00 +13°C° 0 mm 3 mps 740 mmHg 83%
    04:00 +13°C° 0 mm 3 mps 740 mmHg 84%
    05:00 +13°C° 0.1 mm 3 mps 740 mmHg 85%
    06:00 +12°C° 0.1 mm 3 mps 740 mmHg 87%
    07:00 +13°C° 0.1 mm 2 mps 741 mmHg 88%
    08:00 +12°C° 0.1 mm 3 mps 741 mmHg 86%
    09:00 +12°C° 0.1 mm 3 mps 742 mmHg 85%
    10:00 +12°C° 0.1 mm 3 mps 742 mmHg 84%
    11:00 +12°C° 0 mm 3 mps 742 mmHg 79%
    12:00 +13°C° 0 mm 4 mps 742 mmHg 74%
    13:00 +13°C° 0 mm 4 mps 743 mmHg 69%
    14:00 +13°C° 0 mm 4 mps 743 mmHg 70%
    15:00 +13°C° 0 mm 3 mps 743 mmHg 71%
    16:00 +14°C° 0 mm 2 mps 743 mmHg 71%
    17:00 +13°C° 0 mm 2 mps 743 mmHg 75%
    18:00 +13°C° 0 mm 2 mps 744 mmHg 78%
    19:00 +12°C° 0 mm 2 mps 744 mmHg 81%
    20:00 +12°C° 0.3 mm 2 mps 744 mmHg 83%
    21:00 +12°C° 0.3 mm 2 mps 745 mmHg 85%
    22:00 +12°C° 0.3 mm 2 mps 745 mmHg 87%
    23:00 +12°C° 0.7 mm 2 mps 745 mmHg 88%

    16 November, Saturday

    Time Temperature Precipitation Wind Pressure Humidity
    00:00 +12°C° 0.7 mm 2 mps 745 mmHg 89%
    01:00 +12°C° 0.7 mm 2 mps 746 mmHg 90%
    02:00 +12°C° 0.2 mm 2 mps 745 mmHg 90%
    03:00 +12°C° 0.2 mm 2 mps 745 mmHg 90%
    04:00 +12°C° 0.2 mm 2 mps 745 mmHg 90%
    05:00 +12°C° 0.2 mm 2 mps 745 mmHg 89%
    06:00 +12°C° 0.2 mm 2 mps 744 mmHg 89%
    07:00 +10°C° 0.2 mm 3 mps 744 mmHg 89%
    08:00 +10°C° 1.7 mm 3 mps 744 mmHg 89%
    09:00 +10°C° 1.7 mm 3 mps 744 mmHg 89%
    10:00 +10°C° 1.7 mm 3 mps 744 mmHg 89%
    11:00 +10°C° 1.6 mm 4 mps 743 mmHg 90%
    12:00 +8°C° 1.6 mm 5 mps 742 mmHg 90%
    13:00 +8°C° 1.6 mm 6 mps 741 mmHg 91%
    14:00 +9°C° 0.5 mm 6 mps 740 mmHg 91%
    15:00 +9°C° 0.5 mm 6 mps 739 mmHg 91%
    16:00 +9°C° 0.5 mm 5 mps 738 mmHg 91%
    17:00 +10°C° 1.3 mm 6 mps 737 mmHg 91%
    18:00 +10°C° 1.3 mm 6 mps 737 mmHg 92%
    19:00 +11°C° 1.3 mm 6 mps 736 mmHg 92%
    20:00 +12°C° 1.6 mm 5 mps 735 mmHg 92%
    21:00 +12°C° 1.6 mm 4 mps 734 mmHg 92%
    22:00 +12°C° 1.6 mm 3 mps 733 mmHg 93%
    23:00 +12°C° 2.4 mm 4 mps 733 mmHg 93%

    17 November, Sunday

    Time Temperature Precipitation Wind Pressure Humidity
    00:00 +10°C° 2.4 mm 5 mps 732 mmHg 94%
    01:00 +10°C° 2.4 mm 5 mps 731 mmHg 95%
    02:00 +10°C° 5.1 mm 9 mps 731 mmHg 93%
    03:00 +8°C° 5.1 mm 12 mps 731 mmHg 91%
    04:00 +8°C° 5.1 mm 15 mps 732 mmHg 89%
    05:00 +8°C° 2 mm 15 mps 733 mmHg 87%
    06:00 +8°C° 2 mm 15 mps 734 mmHg 85%
    07:00 +8°C° 2 mm 15 mps 735 mmHg 83%
    08:00 +9°C° 0.2 mm 14 mps 736 mmHg 79%
    09:00 +9°C° 0.2 mm 13 mps 738 mmHg 74%
    10:00 +10°C° 0.2 mm 12 mps 739 mmHg 70%
    11:00 +10°C° 0.1 mm 12 mps 740 mmHg 67%
    12:00 +12°C° 0.1 mm 12 mps 741 mmHg 64%
    13:00 +12°C° 0.1 mm 12 mps 741 mmHg 60%
    14:00 +12°C° 0 mm 11 mps 742 mmHg 62%
    15:00 +12°C° 0 mm 10 mps 742 mmHg 63%
    16:00 +12°C° 0 mm 9 mps 743 mmHg 64%
    17:00 +11°C° 0 mm 8 mps 743 mmHg 67%
    18:00 +10°C° 0 mm 7 mps 744 mmHg 70%
    19:00 +9°C° 0 mm 5 mps 744 mmHg 74%
    20:00 +9°C° 0.1 mm 5 mps 745 mmHg 77%
    21:00 +10°C° 0.1 mm 4 mps 745 mmHg 81%
    22:00 +10°C° 0.1 mm 4 mps 745 mmHg 84%
    23:00 +11°C° 0.2 mm 4 mps 745 mmHg 86%
    Show more